Waarnemingen

Advertentie
Mijn weer
Nantes, Frankrijk (7222): temperatuur & dauwpunt: 14.07.2018 04:00:00 - 20.07.2018 04:00:00 (CEST)Nantes, Frankrijk (7222): temperatuur 5cm: 14.07.2018 04:00:00 - 20.07.2018 04:00:00 (CEST)Nantes, Frankrijk (7222): temperatuur -20cm & temperatuur -100cm: 14.07.2018 04:00:00 - 20.07.2018 04:00:00 (CEST)Nantes, Frankrijk (7222): windsnelheid & windstoten: 14.07.2018 04:00:00 - 20.07.2018 04:00:00 (CEST)Nantes, Frankrijk (7222): windrichting: 14.07.2018 04:00:00 - 20.07.2018 04:00:00 (CEST)Nantes, Frankrijk (7222): luchtdruk: 14.07.2018 04:00:00 - 20.07.2018 04:00:00 (CEST)Nantes, Frankrijk (7222): zicht: 14.07.2018 04:00:00 - 20.07.2018 04:00:00 (CEST)Nantes, Frankrijk (7222): Zonneschijnduur: 14.07.2018 04:00:00 - 20.07.2018 04:00:00 (CEST)Nantes, Frankrijk (7222): neerslag: 14.07.2018 04:00:00 - 20.07.2018 04:00:00 (CEST)
Datum & Tijd tt [°C] td [°C] tt 5cm [°C] tt -20cm [°C] tt -100cm [°C] ff [km/u] ff [kn] fx [km/u] fx [kn] dd ppp [hPa] vv [km] sd [min] rr [mm]
20.07.2018 04:00:00 14,8 13,2 12,4 21,3 18,9 5 3 10 6 NNW 1016,5 29 0 0,0
20.07.2018 03:00:00 15,3 14,0 13,1 21,4 18,8 5 3 12 6 NNW 1016,7 27 0 0,0
20.07.2018 02:00:00 15,9 14,4 13,5 21,5 18,9 6 4 13 7 NNW 1016,9 26 0 0,0
20.07.2018 01:00:00 16,8 15,5 14,4 21,6 18,9 5 3 11 6 N 1016,9 18 0 0,0
20.07.2018 00:00:00 17,5 16,7 16,5 21,6 18,8 4 2 7 4 WNW 1016,8 11 0 0,0
19.07.2018 23:00:00 17,7 16,9 16,8 21,7 18,9 4 2 7 4 N 1016,6 13 0 0,0
19.07.2018 22:00:00 17,6 16,6 16,9 21,7 18,9 5 3 8 5 W 1016,4 13 0 0,0
19.07.2018 21:00:00 18,2 16,7 17,8 21,7 18,8 3 2 11 6 ZZO 1016,2 37 3 0,8
19.07.2018 20:00:00 18,7 16,8 18,5 21,8 18,9 5 3 8 5 Z 1016,7 11 0 0,2
19.07.2018 19:00:00 18,1 16,8 17,9 21,9 18,9 6 3 11 6 W 1016,7 20 0 0,6
19.07.2018 18:00:00 18,0 16,7 17,7 21,9 18,8 4 2 15 8 ZW 1017,0 6 0 1,4
19.07.2018 17:00:00 18,3 16,6 17,4 21,8 18,9 5 3 11 6 NW 1017,1 12 0 2,8
19.07.2018 16:00:00 19,9 15,7 18,3 21,7 18,9 11 6 23 13 ZW 1017,8 18 0 0,0
19.07.2018 15:00:00 22,2 16,5 21,5 21,6 18,9 15 8 28 15 W 1017,1 35 0 0,0
19.07.2018 14:00:00 24,2 16,7 27,4 21,5 18,8 8 4 16 9 WNW 1016,5 46 0 0,0
19.07.2018 13:00:00 24,8 15,7 27,9 21,5 18,9 6 3 15 8 WZW 1016,6 20 0 0,0
19.07.2018 12:00:00 25,6 16,2 32,4 21,4 18,8 6 4 11 6 WZW 1016,8 42 44 0,0
19.07.2018 11:00:00 24,1 15,6 32,2 21,4 18,8 4 2 8 5 WNW 1016,6 19 60 0,0
19.07.2018 10:00:00 22,2 14,6 21,5 21,5 18,8 4 2 9 5 ONO 1016,6 20 45 0,0
19.07.2018 09:00:00 19,2 13,8 20,5 21,6 18,8 5 3 9 5 NNO 1016,6 52 21 0,0
19.07.2018 08:00:00 17,7 14,0 15,9 21,7 18,8 2 1 8 4 N 1016,6 35 21 0,0
19.07.2018 07:00:00 17,0 13,1 12,3 21,8 18,8 4 2 8 4 N 1016,3 42 4 0,0
19.07.2018 06:00:00 16,5 13,2 12,6 21,9 18,8 2 1 8 4 NO 1016,3 56 0 0,0
19.07.2018 05:00:00 17,2 13,5 15,5 22,1 18,8 4 2 10 5 N 1016,5 60 0 0,0
19.07.2018 04:00:00 17,8 13,7 15,8 22,2 18,8 5 3 13 7 NNO 1016,7 60 0 0,0
19.07.2018 03:00:00 18,0 13,9 16,2 22,3 18,8 8 4 16 9 N 1016,7 60 0 0,0
19.07.2018 02:00:00 19,5 14,7 18,2 22,4 18,9 5 3 11 6 N 1017,0 60 0 0,0
19.07.2018 01:00:00 19,2 14,9 18,1 22,4 18,8 6 4 10 6 NW 1017,4 58 0 0,0
19.07.2018 00:00:00 18,9 14,0 16,1 22,5 18,8 5 3 14 7 NNW 1017,6 60 0 0,0
18.07.2018 23:00:00 18,8 13,6 14,1 22,5 18,8 8 4 14 8 W 1017,3 55 0 0,0
18.07.2018 22:00:00 20,1 14,0 17,2 22,5 18,9 10 5 16 8 W 1016,8 60 25 0,0
18.07.2018 21:00:00 22,9 14,7 23,2 22,4 18,8 10 6 18 10 W 1016,4 56 60 0,0
18.07.2018 20:00:00 24,7 16,1 28,9 22,4 18,8 12 6 19 10 W 1016,0 52 60 0,0
18.07.2018 19:00:00 24,9 15,2 31,2 22,2 18,8 13 7 20 11 WNW 1015,9 49 60 0,0
18.07.2018 18:00:00 25,3 15,6 30,5 22,1 18,8 14 8 24 13 WZW 1016,4 47 52 0,0
18.07.2018 17:00:00 25,8 13,3 30,7 21,8 18,8 8 4 13 7 WZW 1016,6 54 11 0,0
18.07.2018 16:00:00 25,8 12,6 32,4 21,6 18,8 9 5 14 8 WZW 1016,5 53 43 0,0
18.07.2018 15:00:00 25,2 13,4 31,6 21,4 18,8 8 5 16 9 WZW 1016,5 57 23 0,0
18.07.2018 14:00:00 24,9 12,5 35,9 21,3 18,8 8 4 23 12 WZW 1016,6 58 60 0,0
18.07.2018 13:00:00 24,0 13,2 34,3 21,2 18,8 6 4 17 9 W 1017,0 55 60 0,0
18.07.2018 12:00:00 23,4 12,4 33,9 21,1 18,8 8 4 15 8 WZW 1017,3 52 60 0,0
18.07.2018 11:00:00 21,7 14,1 30,4 21,2 18,8 4 2 12 7 NW 1017,3 20 60 0,0
18.07.2018 10:00:00 19,6 13,3 26,0 21,3 18,8 4 2 8 4 WNW 1017,8 20 60 0,0
18.07.2018 09:00:00 17,5 13,8 18,9 21,4 18,8 5 3 9 5 NNW 1017,8 20 60 0,0
18.07.2018 08:00:00 14,5 13,7 6,0 21,5 18,8 0 0 4 2 N 1017,7 34 56 0,0
18.07.2018 07:00:00 11,9 11,3 4,4 21,7 18,8 2 1 5 3 WZW 1017,6 38 0 0,0
18.07.2018 06:00:00 11,7 10,8 4,5 21,9 18,8 2 1 4 2 WZW 1017,7 36 0 0,0
18.07.2018 05:00:00 13,1 11,5 5,9 22,0 18,8 4 2 7 4 NW 1017,8 53 0 0,0
18.07.2018 04:00:00 15,1 12,2 10,9 22,2 18,8 2 1 11 6 WZW 1018,2 60 0 0,0
18.07.2018 03:00:00 15,7 12,4 9,9 22,3 18,8 3 2 6 4 NW 1018,4 60 0 0,0
18.07.2018 02:00:00 14,9 11,7 8,0 22,5 18,8 2 1 9 5 NNW 1018,6 60 0 0,0
18.07.2018 01:00:00 15,4 10,8 10,6 22,6 18,8 6 3 11 6 WNW 1018,9 60 0 0,0
18.07.2018 00:00:00 16,4 10,7 12,0 22,6 18,8 7 4 18 10 NW 1019,1 60 0 0,0
17.07.2018 23:00:00 17,9 10,8 15,0 22,7 18,8 10 5 16 9 WNW 1019,1 60 0 0,0
17.07.2018 22:00:00 19,3 11,3 17,1 22,7 18,8 7 4 16 9 W 1018,6 60 30 0,0
17.07.2018 21:00:00 21,1 11,7 21,6 22,7 18,8 10 5 22 12 W 1018,3 59 60 0,0
17.07.2018 20:00:00 22,5 12,1 26,2 22,6 18,8 15 8 27 14 W 1018,1 58 60 0,0
17.07.2018 19:00:00 23,4 12,4 24,1 22,4 18,8 15 8 27 15 W 1018,1 58 54 0,0
17.07.2018 18:00:00 23,8 12,7 25,9 22,3 18,8 16 8 27 14 W 1018,2 20 49 0,0
17.07.2018 17:00:00 25,2 12,8 28,9 22,1 18,8 10 5 22 12 WNW 1018,4 60 44 0,0
17.07.2018 16:00:00 25,3 11,5 32,1 21,9 18,8 11 6 19 11 NW 1018,6 20 57 0,0
17.07.2018 15:00:00 25,1 12,7 29,1 21,7 18,8 10 6 24 13 W 1018,8 51 49 0,0
17.07.2018 14:00:00 23,8 12,7 27,8 21,6 18,8 10 5 19 10 W 1019,2 44 50 0,0
17.07.2018 13:00:00 23,0 13,7 26,4 21,5 18,8 9 5 19 10 WZW 1019,6 60 32 0,0
17.07.2018 12:00:00 22,4 14,0 30,7 21,5 18,8 6 3 13 7 WZW 1019,6 59 52 0,0
17.07.2018 11:00:00 21,3 14,0 23,8 21,5 18,8 7 4 18 10 NW 1019,7 53 44 0,0
17.07.2018 10:00:00 20,4 14,1 25,7 21,6 18,8 4 2 18 10 WNW 1019,5 40 60 0,0
17.07.2018 09:00:00 19,2 14,5 17,2 21,6 18,8 10 6 17 9 N 1019,2 20 30 0,0
17.07.2018 08:00:00 17,9 15,0 17,0 21,7 18,8 8 5 19 11 N 1019,0 49 2 0,0
17.07.2018 07:00:00 17,1 16,1 16,5 21,8 18,8 3 2 10 6 W 1018,5 20 0 0,0
17.07.2018 06:00:00 17,1 16,3 15,5 21,9 18,8 4 2 12 7 ZW 1018,1 20 0 0,0
17.07.2018 05:00:00 17,1 16,3 16,0 22,1 18,8 7 4 16 9 WZW 1018,0 19 0 0,0
17.07.2018 04:00:00 17,6 16,8 16,2 22,2 18,8 6 3 12 6 WZW 1018,0 36 0 0,0
17.07.2018 03:00:00 17,5 16,7 16,3 22,3 18,8 6 3 10 5 ZW 1018,1 20 0 0,0
17.07.2018 02:00:00 16,9 16,1 10,0 22,4 18,8 3 1 8 4 ZW 1018,3 45 0 0,0
17.07.2018 01:00:00 17,0 15,7 11,6 22,5 18,8 5 3 10 5 WZW 1018,5 13 0 0,0
17.07.2018 00:00:00 18,1 16,3 15,9 22,6 18,8 8 4 17 9 W 1018,2 59 0 0,0
16.07.2018 23:00:00 18,8 16,0 17,4 22,6 18,8 13 7 19 10 W 1017,8 60 0 0,0
16.07.2018 22:00:00 19,9 16,3 18,4 22,6 18,8 16 9 34 18 W 1017,3 60 30 0,0
16.07.2018 21:00:00 21,5 15,8 22,1 22,6 18,8 23 12 36 19 W 1016,8 42 60 0,0
16.07.2018 20:00:00 23,0 15,8 26,5 22,5 18,7 21 11 34 19 W 1016,2 55 60 0,0
16.07.2018 19:00:00 24,3 13,8 26,6 22,5 18,7 22 12 37 20 W 1015,6 60 44 0,0
16.07.2018 18:00:00 24,8 13,4 26,7 22,3 18,7 22 12 36 19 W 1015,6 20 20 0,0
16.07.2018 17:00:00 25,4 12,6 29,3 22,2 18,8 23 12 35 19 W 1015,2 52 55 0,0
16.07.2018 16:00:00 27,6 14,6 32,4 21,9 18,7 22 12 34 18 W 1014,8 43 56 0,0
16.07.2018 15:00:00 27,6 15,6 30,9 21,7 18,7 12 7 21 12 WNW 1014,7 20 41 0,0
16.07.2018 14:00:00 27,8 14,8 37,6 21,6 18,7 8 4 18 10 WNW 1015,0 60 60 0,0
16.07.2018 13:00:00 27,3 14,7 36,2 21,5 18,7 6 3 16 8 WZW 1015,1 20 60 0,0
16.07.2018 12:00:00 25,6 14,7 33,1 21,5 18,7 7 4 18 10 NW 1015,0 50 60 0,0
16.07.2018 11:00:00 24,1 14,5 31,1 21,5 18,7 10 5 16 9 NW 1014,7 54 60 0,0
16.07.2018 10:00:00 23,1 14,4 28,4 21,6 18,7 6 3 10 5 NW 1014,6 48 60 0,0
16.07.2018 09:00:00 20,8 14,0 21,9 21,7 18,7 3 1 5 3 NNW 1014,6 20 60 0,0
16.07.2018 08:00:00 18,2 13,9 12,8 21,8 18,7 4 2 10 5 WNW 1014,5 19 56 0,0
16.07.2018 07:00:00 15,0 12,9 8,4 22,0 18,7 4 2 8 4 NNW 1014,2 10 2 0,0
16.07.2018 06:00:00 15,0 12,3 8,5 22,1 18,7 2 1 9 5 NW 1014,2 12 0 0,0
16.07.2018 05:00:00 15,5 13,0 9,0 22,3 18,7 7 4 11 6 NNW 1014,1 60 0 0,0
16.07.2018 04:00:00 15,9 12,8 9,3 22,5 18,7 5 3 7 4 NNW 1014,5 55 0 0,0
16.07.2018 03:00:00 16,4 12,9 10,1 22,6 18,7 5 3 9 5 NW 1014,7 59 0 0,0
16.07.2018 02:00:00 17,7 13,2 11,5 22,7 18,7 6 4 10 6 NW 1014,8 60 0 0,0
16.07.2018 01:00:00 19,3 13,2 12,7 22,8 18,7 5 3 10 5 NW 1014,8 49 0 0,0
16.07.2018 00:00:00 20,7 13,4 17,9 22,9 18,7 8 4 13 7 NNW 1014,6 54 0 0,0
15.07.2018 23:00:00 22,4 12,6 19,3 22,9 18,7 8 5 16 9 NW 1014,6 59 0 0,0
15.07.2018 22:00:00 23,6 14,3 19,8 22,9 18,7 9 5 15 8 NW 1014,1 59 31 0,0
15.07.2018 21:00:00 26,5 13,9 26,4 22,8 18,7 12 7 21 11 NW 1013,8 55 60 0,0
15.07.2018 20:00:00 28,5 12,8 31,9 22,7 18,7 9 5 21 11 NNW 1013,6 58 60 0,0
15.07.2018 19:00:00 29,3 13,1 35,2 22,5 18,7 12 6 21 11 W 1013,5 56 60 0,0
15.07.2018 18:00:00 29,6 12,5 28,9 22,3 18,7 13 7 22 12 NW 1013,8 44 45 0,0
15.07.2018 17:00:00 28,9 13,2 31,4 22,1 18,7 10 5 19 10 WNW 1014,2 53 52 0,0
15.07.2018 16:00:00 29,8 12,7 39,2 21,9 18,7 9 5 20 11 W 1014,3 19 60 0,0
15.07.2018 15:00:00 29,1 14,1 35,7 21,7 18,7 3 2 21 11 NO 1014,5 20 54 0,0
15.07.2018 14:00:00 28,9 13,9 38,3 21,5 18,7 9 5 21 11 NNO 1014,9 55 60 0,0
15.07.2018 13:00:00 27,6 15,3 36,7 21,4 18,7 8 4 19 10 NO 1015,4 41 60 0,0
15.07.2018 12:00:00 26,2 15,9 35,3 21,3 18,7 10 5 18 10 NO 1015,7 32 60 0,0
15.07.2018 11:00:00 24,8 15,4 31,6 21,4 18,7 7 4 13 7 N 1015,9 20 60 0,0
15.07.2018 10:00:00 22,8 14,9 27,2 21,4 18,7 9 5 19 10 ONO 1016,0 45 60 0,0
15.07.2018 09:00:00 20,9 14,8 21,1 21,5 18,7 8 4 17 9 NNO 1016,0 38 60 0,0
15.07.2018 08:00:00 18,7 14,4 15,7 21,7 18,7 8 4 16 9 NNO 1016,1 20 57 0,0
15.07.2018 07:00:00 16,7 14,2 13,2 21,8 18,7 7 4 14 8 NNO 1015,8 28 4 0,0
15.07.2018 06:00:00 16,3 13,6 13,1 21,9 18,7 5 3 18 10 NNO 1015,9 18 0 0,0
15.07.2018 05:00:00 17,5 13,8 16,0 22,0 18,7 11 6 19 10 NNO 1015,9 33 0 0,0
15.07.2018 04:00:00 18,3 14,0 16,8 22,1 18,7 9 5 18 10 NNO 1016,1 37 0 0,0
15.07.2018 03:00:00 18,9 14,2 17,5 22,2 18,7 9 5 20 11 NNO 1016,5 40 0 0,0
15.07.2018 02:00:00 19,8 14,2 18,3 22,3 18,7 10 6 27 15 NNO 1016,9 46 0 0,0
15.07.2018 01:00:00 20,7 14,1 19,0 22,4 18,7 13 7 29 16 NNO 1017,0 53 0 0,0
15.07.2018 00:00:00 22,3 14,4 20,5 22,5 18,7 13 7 27 15 NNO 1017,0 45 0 0,0
14.07.2018 23:00:00 23,7 15,2 19,0 22,5 18,7 12 6 27 14 NNO 1016,9 50 0 0,0
14.07.2018 22:00:00 23,9 14,3 20,0 22,4 18,7 6 3 14 8 N 1016,3 46 27 0,0
14.07.2018 21:00:00 27,2 14,2 27,5 22,4 18,7 7 4 14 8 N 1016,1 54 60 0,0
14.07.2018 20:00:00 28,4 13,5 33,9 22,3 18,7 7 4 14 8 NNO 1016,1 20 60 0,0
14.07.2018 19:00:00 29,3 13,9 34,1 22,2 18,7 8 4 22 12 N 1016,3 48 60 0,0
14.07.2018 18:00:00 28,5 14,0 32,9 22,0 18,7 7 4 15 8 NNW 1016,7 20 42 0,0
14.07.2018 17:00:00 28,5 14,7 29,7 21,9 18,7 10 5 18 10 ONO 1016,9 44 36 0,0
14.07.2018 16:00:00 27,6 14,9 30,0 21,7 18,7 11 6 22 12 NNO 1017,4 35 23 0,0
14.07.2018 15:00:00 27,5 14,8 30,0 21,5 18,7 8 4 18 10 NNO 1017,8 20 27 0,0
14.07.2018 14:00:00 27,1 16,1 30,0 21,3 18,7 8 4 18 10 NNO 1018,1 34 33 0,0
14.07.2018 13:00:00 27,0 16,0 36,2 21,2 18,6 10 6 18 10 NNO 1018,3 39 60 0,0
14.07.2018 12:00:00 25,5 16,9 34,3 21,2 18,7 9 5 16 9 N 1018,8 20 60 0,0
14.07.2018 11:00:00 24,1 16,6 30,7 21,2 18,7 6 3 14 8 NNO 1019,1 20 60 0,0
14.07.2018 10:00:00 22,3 15,9 26,8 21,2 18,6 8 4 16 8 NO 1019,1 20 60 0,0
14.07.2018 09:00:00 20,2 15,4 19,9 21,3 18,6 8 5 18 10 NO 1019,3 24 60 0,0
14.07.2018 08:00:00 18,1 15,2 16,1 21,5 18,7 9 5 20 11 NNO 1019,0 15 58 0,0
14.07.2018 07:00:00 16,8 14,8 15,0 21,6 18,7 8 4 15 8 NNO 1019,0 15 5 0,0
14.07.2018 06:00:00 16,7 14,5 14,8 21,7 18,7 7 4 16 8 NNO 1019,0 17 0 0,0
14.07.2018 05:00:00 16,8 14,6 14,7 21,8 18,7 10 5 16 9 NNO 1019,0 19 0 0,0
14.07.2018 04:00:00 17,7 14,8 16,0 21,9 18,7 8 4 19 11 NNO 1019,3 20 0 0,0

tt = temperatuur
td = dauwpunt
tt 5cm = temperatuur 5cm
tt -20cm = temperatuur -20cm
tt -100cm = temperatuur -100cm
ff = windsnelheid
fx = windstoten
dd = windrichting
ppp = luchtdruk
vv = zicht
sd = Zonneschijnduur
rr = neerslag

Weerstations in de omgeving